Weather History for Harlan, KY

Change the Weather History Date:

Monday, October 28, 2013

  Actual Average (KLOZ) Record (KLOZ)
Temperature  
Mean Temperature 55 °F 54 °F  
Max Temperature 60 °F 66 °F 84 °F (1991)
Min Temperature 50 °F 42 °F 23 °F (1976)
Degree Days  
Heating Degree Days 10 12  
Month to date heating degree days 224  
Since 1 July heating degree days 271  
Cooling Degree Days 0 0  
Month to date cooling degree days 17  
Year to date cooling degree days 1184  
Growing Degree Days 5 (Base 50)    
Moisture  
Dew Point 50 °F    
Average Humidity 86    
Maximum Humidity 100    
Minimum Humidity 72    
Precipitation  
Precipitation 0.00 in 0.11 in 1.29 in (2002)
Month to date precipitation 2.71  
Year to date precipitation 38.76  
Sea Level Pressure  
Sea Level Pressure 30.21 in    
Wind  
Wind Speed 3 mph (East)    
Max Wind Speed 10 mph    
Max Gust Speed -    
Visibility 8 miles    
Events      
T = Trace of Precipitation, MM = Missing Value Source: NWS Daily Summary

Daily Weather History Graph

Daily Weather History Graph

Search for Another Location

Airport:

Trip Planner

Search our weather history database for the weather conditions in past years. The results will help you decide how hot, cold, wet, or windy it might be!

Date:

Astronomy

Oct. 28, 2013 Rise Set
Actual Time 7:53 AM EDT 6:40 PM EDT
Civil Twilight 7:26 AM EDT 7:06 PM EDT
Nautical Twilight 6:56 AM EDT 7:37 PM EDT
Astronomical Twilight 6:26 AM EDT 8:07 PM EDT
Moon 1:54 AM EDT (10/28) 3:13 PM EDT (10/28)
Length of Visible Light 11h 40m
Length of Day
10h 46m
Waning Crescent, 34% of the Moon is Illuminated
Oct 28
Waning Crescent
Nov 3
New
Nov 10
First Quarter
Nov 17
Full
Nov 25
Last Quarter

Hourly Weather History & Observations

Time (EDT) Temp. Dew Point Humidity Pressure Visibility Wind Dir Wind Speed Gust Speed Precip Events Conditions
12:15 AM 53.6 °F 46.4 °F 77% 30.13 in 10.0 mi East 8.1 mph - N/A   Overcast
12:35 AM 53.6 °F 46.4 °F 77% 30.13 in 10.0 mi East 5.8 mph - N/A   Overcast
12:55 AM 53.6 °F 46.4 °F 77% 30.13 in 10.0 mi Calm Calm - N/A   Overcast
1:15 AM 53.6 °F 46.4 °F 77% 30.14 in 10.0 mi Calm Calm - N/A   Overcast
1:35 AM 53.6 °F 46.4 °F 77% 30.14 in 10.0 mi ESE 8.1 mph - N/A   Overcast
1:55 AM 51.8 °F 46.4 °F 82% 30.13 in 10.0 mi NE 3.5 mph - N/A   Overcast
2:15 AM 51.8 °F 48.2 °F 88% 30.13 in 10.0 mi East 9.2 mph - N/A   Overcast
2:35 AM 51.8 °F 46.4 °F 82% 30.13 in 10.0 mi East 10.4 mph - N/A   Overcast
2:55 AM 51.8 °F 46.4 °F 82% 30.13 in 10.0 mi East 3.5 mph - N/A   Overcast
3:15 AM 51.8 °F 46.4 °F 82% 30.13 in 10.0 mi Calm Calm - N/A   Mostly Cloudy
3:35 AM 51.8 °F 46.4 °F 82% 30.14 in 10.0 mi WNW 6.9 mph - N/A   Mostly Cloudy
3:55 AM 50.0 °F 46.4 °F 87% 30.14 in 10.0 mi East 6.9 mph - N/A   Overcast
4:15 AM 50.0 °F 46.4 °F 87% 30.13 in 10.0 mi East 6.9 mph - N/A   Mostly Cloudy
4:35 AM 50.0 °F 46.4 °F 87% 30.14 in 10.0 mi Calm Calm - N/A   Scattered Clouds
4:55 AM 50.0 °F 46.4 °F 87% 30.15 in 10.0 mi NNE 9.2 mph - N/A   Scattered Clouds
5:15 AM 50.0 °F 46.4 °F 87% 30.15 in 10.0 mi South 3.5 mph - N/A   Overcast
5:35 AM 50.0 °F 46.4 °F 87% 30.16 in 10.0 mi Calm Calm - N/A   Overcast
5:55 AM 50.0 °F 46.4 °F 87% 30.16 in 10.0 mi Calm Calm - N/A   Overcast
6:15 AM 50.0 °F 46.4 °F 87% 30.17 in 10.0 mi Calm Calm - N/A   Overcast
6:35 AM 50.0 °F 46.4 °F 87% 30.17 in 10.0 mi Calm Calm - N/A   Overcast
6:55 AM 50.0 °F 48.2 °F 94% 30.18 in 7.0 mi Calm Calm - N/A   Overcast
7:15 AM 50.0 °F 48.2 °F 94% 30.19 in 3.0 mi WSW 4.6 mph - N/A   Overcast
7:35 AM 50.0 °F 48.2 °F 94% 30.19 in 1.8 mi Calm Calm - N/A   Overcast
7:55 AM 50.0 °F 48.2 °F 94% 30.19 in 2.0 mi East 3.5 mph - N/A   Overcast
8:15 AM 50.0 °F 48.2 °F 94% 30.20 in 1.0 mi Calm Calm - N/A   Overcast
8:35 AM 50.0 °F 48.2 °F 94% 30.21 in 0.2 mi Calm Calm - N/A   Overcast
8:55 AM 50.0 °F 50.0 °F 100% 30.21 in 1.5 mi East 5.8 mph - N/A   Overcast
9:15 AM 50.0 °F 50.0 °F 100% 30.22 in 0.2 mi Calm Calm - N/A   Overcast
9:35 AM 50.0 °F 50.0 °F 100% 30.23 in 0.5 mi ESE 4.6 mph - N/A   Overcast
9:55 AM 50.0 °F 50.0 °F 100% 30.24 in 0.8 mi ESE 4.6 mph - N/A   Overcast
10:15 AM 51.8 °F 50.0 °F 94% 30.24 in 0.5 mi Calm Calm - N/A   Overcast
10:35 AM 51.8 °F 50.0 °F 94% 30.25 in 1.5 mi East 5.8 mph - N/A   Overcast
10:55 AM 51.8 °F 51.8 °F 100% 30.25 in 2.0 mi East 4.6 mph - N/A   Overcast
11:15 AM 53.6 °F 51.8 °F 94% 30.25 in 2.5 mi Calm Calm - N/A   Overcast
11:35 AM 53.6 °F 51.8 °F 94% 30.25 in 4.0 mi North - - N/A   Overcast
11:55 AM 55.4 °F 53.6 °F 94% 30.25 in 10.0 mi East 3.5 mph - N/A   Overcast
12:15 PM 55.4 °F 51.8 °F 88% 30.25 in 10.0 mi North - - N/A   Overcast
12:35 PM 57.2 °F 53.6 °F 88% 30.25 in 10.0 mi East 6.9 mph - N/A   Mostly Cloudy
12:55 PM 59.0 °F 53.6 °F 82% 30.24 in 10.0 mi NNE 5.8 mph - N/A   Overcast
1:15 PM 59.0 °F 53.6 °F 82% 30.23 in 10.0 mi Calm Calm - N/A   Overcast
1:35 PM 60.8 °F 53.6 °F 77% 30.22 in 10.0 mi East 4.6 mph - N/A   Mostly Cloudy
1:55 PM 60.8 °F 51.8 °F 72% 30.22 in 10.0 mi Calm Calm - N/A   Mostly Cloudy
2:15 PM 60.8 °F 51.8 °F 72% 30.21 in 10.0 mi Calm Calm - N/A   Overcast
2:35 PM 60.8 °F 51.8 °F 72% 30.21 in 10.0 mi Calm Calm - N/A   Overcast
2:55 PM 60.8 °F 51.8 °F 72% 30.20 in 10.0 mi Calm Calm - N/A   Overcast
3:15 PM 60.8 °F 51.8 °F 72% 30.20 in 10.0 mi Calm Calm - N/A   Overcast
3:35 PM 60.8 °F 51.8 °F 72% 30.20 in 10.0 mi Calm Calm - N/A   Overcast
3:55 PM 60.8 °F 51.8 °F 72% 30.20 in 10.0 mi Calm Calm - N/A   Overcast
4:15 PM 60.8 °F 51.8 °F 72% 30.21 in 10.0 mi Calm Calm - N/A   Overcast
4:35 PM 60.8 °F 51.8 °F 72% 30.21 in 10.0 mi Calm Calm - N/A   Overcast
4:55 PM 60.8 °F 51.8 °F 72% 30.21 in 10.0 mi Calm Calm - N/A   Overcast
5:15 PM 59.0 °F 53.6 °F 82% 30.21 in 10.0 mi Calm Calm - N/A   Overcast
5:35 PM 60.8 °F 53.6 °F 77% 30.20 in 10.0 mi Calm Calm - N/A   Overcast
5:55 PM 59.0 °F 53.6 °F 82% 30.21 in 10.0 mi Calm Calm - N/A   Overcast
6:15 PM 59.0 °F 51.8 °F 77% 30.22 in 10.0 mi Calm Calm - N/A   Overcast
6:35 PM 59.0 °F 51.8 °F 77% 30.23 in 10.0 mi Calm Calm - N/A   Overcast
6:55 PM 59.0 °F 51.8 °F 77% 30.23 in 10.0 mi Calm Calm - N/A   Overcast
7:15 PM 57.2 °F 53.6 °F 88% 30.24 in 10.0 mi Calm Calm - N/A   Overcast
7:35 PM 57.2 °F 53.6 °F 88% 30.25 in 10.0 mi Calm Calm - N/A   Overcast
7:55 PM 57.2 °F 51.8 °F 82% 30.25 in 10.0 mi Calm Calm - N/A   Overcast
8:15 PM 57.2 °F 51.8 °F 82% 30.25 in 10.0 mi Calm Calm - N/A   Overcast
8:35 PM 55.4 °F 51.8 °F 88% 30.26 in 10.0 mi Calm Calm - N/A   Overcast
9:15 PM 55.4 °F 53.6 °F 94% 30.25 in 10.0 mi East 10.4 mph - N/A   Overcast
9:35 PM 55.4 °F 53.6 °F 94% 30.26 in 10.0 mi Calm Calm - N/A   Overcast
9:55 PM 55.4 °F 53.6 °F 94% 30.26 in 10.0 mi Calm Calm - N/A   Overcast
10:15 PM 55.4 °F 53.6 °F 94% 30.27 in 10.0 mi Calm Calm - N/A   Overcast
10:35 PM 55.4 °F 53.6 °F 94% 30.27 in 10.0 mi Calm Calm - N/A   Overcast
10:55 PM 55.4 °F 53.6 °F 94% 30.27 in 10.0 mi Calm Calm - N/A   Overcast
11:15 PM 55.4 °F 53.6 °F 94% 30.28 in 7.0 mi Calm Calm - N/A   Overcast
11:35 PM 55.4 °F 53.6 °F 94% 30.28 in 10.0 mi Calm Calm - N/A   Overcast
11:55 PM 55.4 °F 53.6 °F 94% 30.29 in 10.0 mi North - - N/A   Overcast